Buffalo, NY

1:20 AM EST on December 09, 2016 (GMT -0500)
Buffalo Niagara International

Weather History for KBUF - April, 2013

Change the Weather History Date:

Saturday, April 27, 2013

  Actual Average Record
Temperature  
Mean Temperature 55 °F 50 °F  
Max Temperature 70 °F 60 °F 84 °F (1984)
Min Temperature 39 °F 41 °F 25 °F (1993)
Degree Days  
Heating Degree Days 10 15  
Month to date heating degree days 542 533  
Since 1 July heating degree days 5848 6238  
Cooling Degree Days 0 0  
Month to date cooling degree days 0 0  
Year to date cooling degree days 0 0  
Growing Degree Days 4 (Base 50)    
Moisture  
Dew Point 29 °F    
Average Humidity 41    
Maximum Humidity 59    
Minimum Humidity 22    
Precipitation  
Precipitation 0.00 in 0.09 in 1.06 in (1913)
Month to date precipitation 3.78 2.71  
Year to date precipitation 10.39 11.25  
Snow  
Snow 0.00 in 0.00 in 0.20 in (1931)
Month to date snowfall 0.3 2.6  
Since 1 July snowfall 58.8 94.3  
Snow Depth 0.00 in    
Sea Level Pressure  
Sea Level Pressure 30.33 in    
Wind  
Wind Speed 5 mph (SE)    
Max Wind Speed 12 mph    
Max Gust Speed 15 mph    
Visibility 10 miles    
Events      
T = Trace of Precipitation, MM = Missing Value Source: NWS Daily Summary

Daily Weather History Graph

Daily Weather History Graph

Search for Another Location

Airport or City:

Trip Planner

Search our weather history database for the weather conditions in past years. The results will help you decide how hot, cold, wet, or windy it might be!

Date:

Astronomy

Apr. 27, 2013 Rise Set
Actual Time 6:14 AM EDT 8:11 PM EDT
Civil Twilight 5:43 AM EDT 8:42 PM EDT
Nautical Twilight 5:06 AM EDT 9:19 PM EDT
Astronomical Twilight 4:25 AM EDT 10:00 PM EDT
Moon 10:41 PM EDT (4/27) 7:28 AM EDT (4/27)
Length of Visible Light 14h 58m
Length of Day
13h 57m
Waning Gibbous, 95% of the Moon is Illuminated
Apr 27
Waning Gibbous
May 2
Last Quarter
May 9
New
May 18
First Quarter
May 25
Full

Hourly Weather History & Observations

Time (EDT) Temp. Windchill Dew Point Humidity Pressure Visibility Wind Dir Wind Speed Gust Speed Precip Events Conditions
12:54 AM 43.0 °F 39.5 °F 21.0 °F 42% 30.42 in 10.0 mi SE 5.8 mph - N/A   Scattered Clouds
1:54 AM 41.0 °F 37.1 °F 23.0 °F 49% 30.42 in 10.0 mi SE 5.8 mph - N/A   Scattered Clouds
2:54 AM 39.9 °F 36.7 °F 24.1 °F 53% 30.41 in 10.0 mi SE 4.6 mph - N/A   Partly Cloudy
3:54 AM 39.9 °F 35.8 °F 24.1 °F 53% 30.40 in 10.0 mi SE 5.8 mph - N/A   Partly Cloudy
4:54 AM 39.9 °F 35.8 °F 25.0 °F 55% 30.38 in 10.0 mi SE 5.8 mph - N/A   Partly Cloudy
5:54 AM 39.9 °F - 26.1 °F 58% 30.39 in 10.0 mi Calm Calm - N/A   Partly Cloudy
6:54 AM 39.9 °F 35.1 °F 26.1 °F 58% 30.40 in 10.0 mi SSE 6.9 mph - N/A   Partly Cloudy
7:54 AM 44.1 °F 40.8 °F 27.0 °F 51% 30.41 in 10.0 mi South 5.8 mph - N/A   Partly Cloudy
8:54 AM 51.1 °F - 28.9 °F 43% 30.40 in 10.0 mi South 5.8 mph - N/A   Scattered Clouds
9:54 AM 55.9 °F - 30.0 °F 37% 30.39 in 10.0 mi SW 8.1 mph - N/A   Partly Cloudy
10:54 AM 60.1 °F - 30.0 °F 32% 30.39 in 10.0 mi West 9.2 mph - N/A   Partly Cloudy
11:54 AM 61.0 °F - 28.9 °F 30% 30.38 in 10.0 mi West 8.1 mph - N/A   Partly Cloudy
12:54 PM 63.0 °F - 30.9 °F 30% 30.35 in 10.0 mi Variable 4.6 mph - N/A   Partly Cloudy
1:54 PM 64.9 °F - 28.9 °F 26% 30.33 in 10.0 mi Calm Calm - N/A   Partly Cloudy
2:54 PM 66.0 °F - 32.0 °F 28% 30.30 in 10.0 mi Calm Calm - N/A   Partly Cloudy
3:54 PM 66.9 °F - 30.9 °F 26% 30.28 in 10.0 mi South 5.8 mph - N/A   Partly Cloudy
4:54 PM 69.1 °F - 30.0 °F 23% 30.27 in 10.0 mi Calm Calm - N/A   Partly Cloudy
5:54 PM 69.1 °F - 28.9 °F 22% 30.25 in 10.0 mi Variable 3.5 mph - N/A   Partly Cloudy
6:54 PM 69.1 °F - 28.0 °F 22% 30.25 in 10.0 mi Calm Calm - N/A   Scattered Clouds
7:54 PM 66.9 °F - 28.0 °F 23% 30.23 in 10.0 mi NNE 3.5 mph - N/A   Scattered Clouds
8:54 PM 60.1 °F - 41.0 °F 49% 30.23 in 10.0 mi ENE 9.2 mph - N/A   Scattered Clouds
9:54 PM 59.0 °F - 37.9 °F 46% 30.22 in 10.0 mi East 8.1 mph - N/A   Scattered Clouds
10:54 PM 57.0 °F - 37.9 °F 49% 30.21 in 10.0 mi East 10.4 mph - N/A   Partly Cloudy
11:54 PM 55.0 °F - 37.9 °F 53% 30.20 in 10.0 mi ESE 8.1 mph - N/A   Partly Cloudy